FW5656 Weather Reports


time (UTC)temp
C
wind
direction
speed
KPH
gust
KPH
rain 1hr
cm
rain 24hr
cm
rain mn
cm
humidity
%
barometer
mb
20260905224609 31 32 8.0 16.1 0.00 0.00 0.00 75 1010.6
20260905223044 32 15 8.0 16.1 0.00 0.00 0.00 72 1010.6
20260905221539 32 42 6.4 14.5 0.00 0.00 0.00 70 1010.6
20260905220038 33 27 9.7 16.1 0.00 0.00 0.00 68 1010.6
20260905214544 33 344 6.4 16.1 0.00 0.00 0.00 66 1010.6
20260905213038 33 358 4.8 11.3 0.00 0.00 0.00 66 1010.6
20260905211544 33 4 4.8 14.5 0.00 0.00 0.00 66 1010.5
20260905210042 33 340 8.0 16.1 0.00 0.00 0.00 64 1010.6
20260905204532 33 48 9.7 17.7 0.00 0.00 0.00 67 1010.9
20260905203032 33 32 8.0 17.7 0.00 0.00 0.00 68 1010.9
20260905201531 35 8 8.0 17.7 0.00 0.00 0.00 62 1011.0
20260905200030 35 8 9.7 14.5 0.00 0.00 0.00 61 1011.1
20260905194528 34 345 9.7 14.5 0.00 0.00 0.00 61 1011.0
20260905193027 33 1 4.8 17.7 0.00 0.00 0.00 63 1011.3
20260905191526 33 342 8.0 19.3 0.00 0.00 0.00 62 1011.4
20260905190025 33 326 4.8 17.7 0.00 0.00 0.00 63 1011.4
20260905184529 34 352 6.4 14.5 0.00 0.00 0.00 62 1011.5
20260905183122 34 355 6.4 19.3 0.00 0.00 0.00 62 1011.8
20260905181519 34 298 9.7 16.1 0.00 0.00 0.00 60 1011.9
20260905180018 34 353 6.4 14.5 0.00 0.00 0.00 62 1011.9
20260905174519 34 335 6.4 11.3 0.00 0.00 0.00 60 1012.1
20260905173016 34 49 8.0 16.1 0.00 0.00 0.00 59 1012.1
20260905171514 34 356 6.4 11.3 0.00 0.00 0.00 62 1012.3
20260905170012 33 320 6.4 14.5 0.00 0.00 0.00 62 1012.3
20260905164515 33 324 6.4 11.3 0.00 0.00 0.00 65 1012.3
20260905163010 33 303 4.8 8.0 0.00 0.00 0.00 65 1012.5
20260905161509 33 304 4.8 11.3 0.00 0.00 0.00 66 1012.6
20260905160005 33 336 4.8 9.7 0.00 0.00 0.00 67 1012.6
20260905154503 33 319 4.8 6.4 0.00 0.00 0.00 67 1012.7
20260905153101 32 302 4.8 9.7 0.00 0.00 0.00 69 1012.5
20260905153001 32 298 4.8 9.7 0.00 0.00 0.00 69 1012.4
20260905151558 32 269 4.8 9.7 0.00 0.00 0.00 71 1012.4
20260905150100 31 285 1.6 8.0 0.00 0.00 0.00 72 1012.5
20260905144552 31 279 1.6 6.4 0.00 0.00 0.00 75 1012.5
20260905143048 30 264 3.2 6.4 0.00 0.00 0.00 76 1012.7
20260905141545 30 254 3.2 6.4 0.00 0.00 0.00 77 1012.7
20260905140041 29 257 3.2 6.4 0.00 0.00 0.00 78 1012.6
20260905134537 28 273 3.2 6.4 0.00 0.00 0.00 79 1012.6
20260905133037 28 271 1.6 6.4 0.00 0.00 0.00 82 1012.6
20260905131530 27 233 1.6 4.8 0.00 0.00 0.00 84 1012.6
20260905130029 26 218 1.6 4.8 0.00 0.00 0.00 86 1012.6
20260905124526 26 224 0.0 1.6 0.00 0.00 0.00 86 1012.5
20260905123024 26 152 0.0 0.0 0.00 0.00 0.00 91 1012.5
20260905121519 23 152 0.0 0.0 0.00 0.00 0.00 96 1012.4
20260905120018 22 146 0.0 1.6 0.00 0.00 0.00 98 1012.2
20260905114516 22 227 0.0 0.0 0.00 0.00 0.00 98 1012.3
20260905113016 21 227 0.0 0.0 0.00 0.00 0.00 98 1012.3
20260905111519 21 227 0.0 0.0 0.00 0.00 0.00 98 1012.3
20260905110018 21 227 0.0 0.0 0.00 0.00 0.00 98 1012.3
20260905104513 21 227 0.0 0.0 0.00 0.00 0.00 98 1012.3
20260905103015 21 227 0.0 0.0 0.00 0.00 0.00 97 1012.4
20260905101513 21 227 0.0 1.6 0.00 0.00 0.00 98 1012.3
20260905100016 21 211 0.0 0.0 0.00 0.00 0.00 97 1012.1
20260905094510 21 211 0.0 0.0 0.00 0.00 0.00 96 1012.0
20260905093008 22 211 0.0 0.0 0.00 0.00 0.00 96 1012.0
20260905091510 22 211 0.0 0.0 0.00 0.00 0.00 96 1011.9
20260905090008 22 211 0.0 0.0 0.00 0.00 0.00 95 1011.8
20260905084504 22 211 0.0 1.6 0.00 0.00 0.00 95 1011.8
20260905083003 22 158 0.0 1.6 0.00 0.00 0.00 95 1011.9
20260905081502 22 219 0.0 0.0 0.00 0.00 0.00 95 1012.0
20260905080001 22 219 0.0 0.0 0.00 0.00 0.00 95 1012.0
20260905074559 22 219 0.0 0.0 0.00 0.00 0.00 95 1012.1
20260905073059 22 219 0.0 0.0 0.00 0.00 0.00 95 1012.2
20260905071557 23 219 0.0 0.0 0.00 0.00 0.00 95 1012.2
20260905070058 22 226 0.0 1.6 0.00 0.00 0.00 96 1012.2
20260905064612 22 226 0.0 0.0 0.00 0.00 0.00 96 1012.3
20260905063055 22 226 0.0 1.6 0.00 0.00 0.00 96 1012.2
20260905061603 22 226 0.0 0.0 0.00 0.00 0.00 95 1012.4
20260905060053 22 226 0.0 0.0 0.00 0.00 0.00 95 1012.3
20260905054647 23 226 0.0 1.6 0.00 0.00 0.00 94 1012.2
20260905053051 23 228 0.0 0.0 0.00 0.00 0.00 95 1012.4
20260905051550 23 219 0.0 1.6 0.00 0.00 0.00 95 1012.3
20260905050048 23 153 0.0 0.0 0.00 0.00 0.00 94 1012.5
20260905044555 23 153 0.0 0.0 0.00 0.00 0.00 94 1012.4
20260905043047 23 153 0.0 0.0 0.00 0.00 0.00 94 1012.6
20260905041546 23 153 0.0 0.0 0.00 0.00 0.00 94 1012.6
20260905040052 23 153 0.0 0.0 0.00 0.00 0.00 93 1012.7
20260905034550 23 153 0.0 0.0 0.00 0.00 0.00 94 1012.6
20260905033044 24 152 0.0 0.0 0.00 0.00 0.00 92 1012.5
20260905031548 24 152 0.0 1.6 0.00 0.00 0.00 92 1012.7
20260905030045 25 184 0.0 0.0 0.00 0.00 0.00 91 1012.5
20260905024555 25 184 0.0 0.0 0.00 0.00 0.00 90 1012.4
20260905023043 26 217 0.0 0.0 0.00 0.00 0.00 87 1012.3
20260905021542 26 237 0.0 3.2 0.00 0.00 0.00 88 1012.2
20260905020051 25 303 0.0 0.0 0.00 0.00 0.00 90 1012.1
20260905014540 26 303 0.0 0.0 0.00 0.00 0.00 89 1012.0
20260905013040 26 303 0.0 0.0 0.00 0.00 0.00 88 1011.8
20260905011540 27 303 0.0 0.0 0.00 0.00 0.00 86 1011.7
20260905010043 27 293 0.0 1.6 0.00 0.00 0.00 84 1011.4
20260905004541 28 217 0.0 0.0 0.00 0.00 0.00 80 1011.2
20260905003040 30 217 0.0 1.6 0.00 0.00 0.00 77 1011.3
20260905001539 32 217 0.0 0.0 0.00 0.00 0.00 70 1011.3
20260905000037 34 217 0.0 0.0 0.00 0.00 0.00 68 1011.4
20260904234537 35 217 0.0 1.6 0.00 0.00 0.00 64 1011.4
20260904233036 35 217 0.0 1.6 0.00 0.00 0.00 63 1011.3
20260904231550 35 224 0.0 4.8 0.00 0.00 0.00 59 1011.2
20260904230036 35 202 3.2 8.0 0.00 0.00 0.00 57 1011.1